Location: Barco
(44.6833°N, 10.5000°E)
Time: 18:32:13
(UTC+00:00)

Daily predictions for brighter satellites

Satellite Brightness Start Highest point End
(mag) Time Altitude Azimuth Time Altitude Azimuth Time Altitude Azimuth
Sich 1 3.3 17:29:08 10° S 17:33:31 81° W 17:37:58 10° N
Cosmos 1461 3.5 17:30:50 10° SW 17:35:33 73° NW 17:40:19 10° NNE
ATLAS 5 CENTAUR R/B 4.4 17:18:40 10° SW 17:36:10 55° NW 17:40:41 10° NNE
Nadezhda 3 Rocket 4.4 17:30:12 10° N 17:36:16 44° ENE 17:42:19 10° SSE
Meteor 1-25 Rocket 4.3 17:31:43 10° S 17:37:24 63° E 17:43:02 10° NNE
Cosmos 2074 Rocket 4.0 17:35:14 10° S 17:41:28 75° E 17:47:44 10° NNE
Cosmos 2154 Rocket 4.2 17:35:52 10° SSE 17:41:47 49° E 17:47:42 10° NNE
YAOGAN 1 2.7 17:38:54 10° SSE 17:43:06 54° ENE 17:47:20 10° N
Helios 1A Rocket 3.7 17:39:47 10° SE 17:43:22 31° ENE 17:46:58 10° N
Abrixas rocket 2.4 17:41:00 10° W 17:43:24 42° NNW 17:45:48 10° ENE
APEX 2.9 17:44:17 10° NNW 17:47:02 60° WSW 17:49:42 10° SSE
Cosmos 2219 Rocket 3.8 17:45:51 10° ESE 17:48:10 13° E 17:50:29 10° ENE
COSMO-SKYMED 1 3.2 17:46:06 10° N 17:50:25 62° WNW 17:54:42 10° SSW
GP-B 4.1 17:46:53 10° SE 17:50:32 26° ENE 17:54:13 10° NNE
Cosmos 1992 Rocket 4.1 17:49:02 10° S 17:54:07 55° ESE 17:59:14 10° NNE
SL-16 R/B 2.2 17:49:02 10° SSW 17:54:42 87° ESE 18:00:25 10° NNE
Cosmos 2263 Rocket 3.2 17:50:24 10° NW 17:55:46 50° WSW 18:01:06 10° S
ARGOS 3.2 17:50:53 10° SSE 17:56:11 58° ENE 18:01:31 10° N
Meteor 1-18 Rocket 4.4 17:50:39 10° N 17:56:34 63° ENE 18:02:23 10° SSE
Cosmos 968 Rocket 3.5 17:51:25 10° NNW 17:56:44 89° ENE 18:02:00 10° SSE
USA 234 3.8 17:53:52 10° ENE 17:59:52 37° SE 18:05:49 10° SSW
Cosmos 1486 Rocket 4.0 17:55:10 10° NNW 18:00:29 84° ENE 18:05:48 10° SSE
Cosmos 1515 3.6 17:56:58 10° N 18:00:47 72° E 18:04:35 10° SSE
Okean 1 3.2 17:56:52 10° N 18:00:54 70° E 18:04:55 10° SSE
Cosmos 1633 Rocket 3.2 17:57:37 10° S 18:02:02 80° W 18:06:29 10° N
Cosmos 2184 Rocket 4.1 17:55:55 10° S 18:02:05 81° W 18:08:20 10° N
OBJECT-B 3.0 18:03:20 11° NE 18:03:20 11° NE 18:03:42 10° NE
SeaSat 1 2.7 17:58:28 10° NE 18:03:14 46° ESE 18:07:58 10° S
Okean 1-7 3.9 18:00:35 10° NNE 18:04:21 28° ENE 18:08:05 10° SE
H-2A R/B 2.3 18:02:04 10° SSE 18:07:31 81° WSW 18:13:00 10° NNW
CZ-4 R/B 1.6 18:03:43 10° S 18:07:33 68° WSW 18:11:27 10° NNW
CZ-2C R/B 2.8 18:03:19 10° NNE 18:08:40 50° E 18:13:50 10° S
SAR-Lupe-4 3.4 18:07:36 10° NNE 18:11:11 69° ESE 18:14:44 10° S
Cosmos 2237 4.2 18:08:21 10° SSW 18:14:00 67° ESE 18:19:43 10° NNE
Gbstr 26 Del rocket 4.3 18:09:54 10° WNW 18:14:04 38° N 18:18:27 13° ENE
SL-4 R/B 2.9 18:13:44 10° NW 18:16:52 28° N 18:18:38 18° ENE
USA 186 3.5 18:25:07 13° NNE 18:25:07 13° NNE 18:25:34 10° NNE
ATLAS CENTAUR R/B 0.9 18:20:14 10° SSW 18:23:50 69° ESE 18:26:57 14° NE
FALCON 9 DEB 3.4 18:21:33 10° NW 18:24:55 50° NNE 18:26:13 30° E
Cosmos 1354 Rocket 3.9 18:21:56 10° NNW 18:27:12 72° ENE 18:32:24 10° SSE
Okean-O 3.4 18:23:02 10° S 18:27:22 54° W 18:31:45 10° NNW
ERS-2 2.5 18:24:48 10° N 18:28:26 66° WNW 18:32:03 10° SSW
Cosmos 44 Rocket 3.9 18:23:27 10° NW 18:28:38 62° WSW 18:33:43 10° SSE
CSL-04 Rocket 3.7 18:23:05 10° SSE 18:28:39 86° ENE 18:34:12 10° NNW
Cosmos 2366 rocket 4.5 18:23:05 10° SSE 18:28:47 37° E 18:34:32 10° NNE
CSL-04 Debris 4.2 18:24:34 10° SSE 18:30:00 86° WSW 18:35:31 10° NNW
SAR-Lupe-1 4.5 18:27:01 10° N 18:30:36 65° WNW 18:34:09 10° SSW
Cosmos 1844 Rocket 2.6 18:25:22 10° NNW 18:30:57 70° ENE 18:36:09 12° SE
Cosmos 2084 Rocket 3.6 18:26:44 10° NW 18:31:06 76° SW 18:34:58 14° SSE
Cosmos 1666 2.9 18:29:42 10° SSE 18:33:14 44° E 18:36:48 10° NNE
HJ-1C 4.3 18:32:08 10° S 18:35:21 50° W 18:38:36 10° NNW
Cosmos 1777 Rocket 4.5 18:30:53 10° N 18:35:49 40° ENE 18:37:59 27° ESE
Cosmos 2341 Rocket 3.9 18:30:52 10° S 18:37:07 68° E 18:43:21 10° NNE
Cosmos 1503 Rocket 4.0 18:32:12 10° NNW 18:37:25 82° WSW 18:42:34 10° SSE
Meteor 1-5 Rocket 4.0 18:32:12 10° S 18:37:29 65° E 18:42:56 10° NNE
Cosmos 2333 4.4 18:32:34 10° S 18:37:56 48° ESE 18:43:24 10° NE
Cosmos 1470 Rocket 4.4 18:36:54 10° SSW 18:41:17 54° WNW 18:45:40 10° N
Cosmos 1844 3.7 18:37:00 10° NNW 18:42:47 72° ENE 18:46:58 19° SE
Okean 3 4.1 18:39:04 10° N 18:42:57 34° ENE 18:42:57 34° ENE
Cosmos 2360 Rocket 2.2 18:38:26 10° SSW 18:44:04 85° WNW 18:49:48 10° NNE
Ariane Rocket 3.4 18:42:04 28° ESE 18:44:07 42° ENE 18:48:54 10° N
Cosmos 2278 Rocket 3.5 18:43:42 10° N 18:48:03 22° NE 18:48:36 22° NE
Cosmos 1727 Rocket 4.4 18:45:27 10° N 18:51:12 39° ENE 18:52:56 33° ESE
Cosmos 1500 4.2 18:48:25 10° SSW 18:52:00 46° WNW 18:55:38 10° N
Cosmos 2333 Rocket 2.3 18:48:44 10° S 18:54:12 52° ESE 18:59:44 10° NE
Meteor 2-4 Rocket 4.0 18:48:49 10° NNW 18:54:40 73° W 19:00:33 10° S
Cosmos 1703 Rocket 3.5 18:50:26 10° N 18:54:51 83° W 18:59:12 10° S
Cosmos 2218 Rocket 4.0 18:49:24 10° S 18:55:41 62° E 19:02:00 10° NNE
SL-08 RB Rocket 4.4 18:51:35 10° S 18:55:58 53° W 19:00:28 10° NNW
Resurs 01 Rocket 3.2 19:12:41 23° NNE 19:12:41 23° NNE 19:14:43 10° N
Cosmos 864 Rocket 4.3 19:06:20 10° S 19:12:28 77° E 19:18:41 10° N
Cosmos 2322 Rocket 3.9 19:09:29 10° WSW 19:14:26 31° NW 19:19:26 10° N
Lacrosse 4 Rocket 2.4 19:11:49 10° SSW 19:14:29 36° S 19:14:29 36° S
Cosmos 1959 Rocket 4.3 19:11:49 10° S 19:17:54 87° E 19:24:03 10° N
SME Rocket 4.0 19:10:42 10° NNE 19:18:52 86° ESE 19:24:05 10° SSW
Cosmos 192 4.3 19:16:31 10° SSW 19:21:25 83° WNW 19:26:22 10° NNE
SJ-6B 3.3 19:22:30 51° SSW 19:23:13 62° W 19:27:16 10° NNW
COSMOS 2428 2.6 19:18:37 10° SSW 19:24:14 66° ESE 19:24:51 61° ENE
MOS 1 4.2 19:25:34 37° S 19:27:58 84° WSW 19:33:41 10° NNW
ASTEX 1 3.3 19:23:09 10° N 19:28:03 82° W 19:30:11 34° SSW
Meteor 1-23 Rocket 4.1 19:24:56 10° N 19:30:27 69° ENE 19:30:27 69° ENE
Meteor 1-11 Rocket 3.8 19:25:29 10° SSW 19:31:13 79° W 19:36:52 10° N
Cosmos 2219 Rocket 2.0 19:25:37 10° SSW 19:31:13 88° ESE 19:36:52 10° NNE
OBJECT-B 3.2 19:36:24 21° NW 19:36:24 21° NW 19:37:41 10° NNW
Resurs 1-3 4.2 19:38:47 50° NNW 19:38:47 50° NNW 19:42:05 10° NNW
SeaSat 1 4.3 19:36:20 10° N 19:40:33 29° NW 19:44:44 10° WSW
SJ 16-02 2.9 19:37:24 10° NNW 19:39:35 28° N 19:39:35 28° N
USA 234 3.4 19:39:54 32° NE 19:43:10 72° NNW 19:49:40 10° WSW
Cosmos 1066 Rocket 4.4 19:38:40 10° NNW 19:44:23 73° W 19:45:41 53° SSW
Cosmos 2322 4.4 19:45:46 10° SW 19:51:21 53° WNW 19:56:58 10° NNE
BREEZE-M DEB (TANK) 3.7 19:49:10 10° WNW 19:51:09 42° NW 19:51:09 42° NW
SL-4 R/B 4.4 19:53:17 10° WNW 19:54:13 17° WNW 19:54:13 17° WNW
Gbstr 26 Del rocket 4.4 19:57:04 10° WNW 20:00:59 42° NNW 20:00:59 42° NNW
ATLAS CENTAUR R/B 4.0 20:00:59 10° WNW 20:03:07 15° NW 20:03:10 15° NW
NOSS 3-3 (A) 4.5 20:11:26 10° NW 20:18:42 78° NNE 20:18:42 78° NNE
NOSS 3-3 (C) 4.5 20:11:32 10° NW 20:18:47 78° NNE 20:18:47 78° NNE
Cosmos 2278 Rocket 3.4 20:27:04 10° NNW 20:30:28 37° NW 20:30:28 37° NW
Cosmos 2333 Rocket 4.0 20:33:53 10° WSW 20:38:45 28° NW 20:43:40 10° N
Cosmos 1943 Rocket 4.5 20:47:01 10° N 20:48:24 17° N 20:48:24 17° N
